Hourly Data Report for November 27, 2019

All times are specified in Local Standard Time (LST). Add 1 hour to adjust for Daylight Saving Time where and when it is observed.

SEPT-ILES
QUEBEC
Current Station Operator: ECCC - MSC

50°13'00.000" N
66°15'00.000" W
52.60 m
7047914
71279
XZV

Download Data

Hourly Data (November 2019)
Hourly Data Report for November 27, 2019
TIME Temp Definition
°C
Dew Point Definition
°C
Rel Hum Definition
%
Wind Dir Definition
10's deg

Wind Spd Definition
km/h
Visibility Definition
km
Stn Press Definition
kPa
Hmdx Definition


Wind Chill Definition


Weather Definition


00:00 -2.7 -5.3 82 32 10   100.34   -7 LegendNANA
01:00 -2.6 -5.5 80 31 12   100.39   -7 LegendNANA
02:00 -3.7 -6.1 83 30 5   100.46   -6 LegendNANA
03:00 -2.6 -5.5 81 32 9   100.51   -6 LegendNANA
04:00 -2.8 -5.8 80 31 8   100.55   -6 LegendNANA
05:00 -2.2 -5.4 79 32 15   100.57   -7 LegendNANA
06:00 -2.1 -5.6 77 32 14   100.63   -7 LegendNANA
07:00 -3.0 -6.1 79 30 10   100.73   -7 LegendNANA
08:00 -2.3 -6.0 75 33 6   100.76   -5 LegendNANA
09:00 -0.7 -5.3 71 33 15   100.77   -5 LegendNANA
10:00 0.0 -4.7 71 33 14   100.76   -4 LegendNANA
11:00 0.5 -4.6 69 33 14   100.73     LegendNANA
12:00 0.8 -4.4 68 33 13   100.70     LegendNANA
13:00 1.0 -4.2 69 35 10   100.69     LegendNANA
14:00 0.5 -4.4 69 34 12   100.72     LegendNANA
15:00 0.0 -4.2 74 32 8   100.82   -3 LegendNANA
16:00 -1.0 -4.1 79 30 9   100.88   -4 LegendNANA
17:00 -2.2 -5.0 81 32 7   100.77   -5 LegendNANA
18:00 -3.5 -5.4 87 33 6   100.69   -6 LegendNANA
19:00 -2.4 -5.1 82 1 9   100.62   -6 LegendNANA
20:00 -2.4 -5.2 81 1 8   100.61   -6 LegendNANA
21:00 -2.4 -5.0 82 1 8   100.55   -6 LegendNANA
22:00 -1.8 -4.5 82 1 8   100.52   -5 LegendNANA
23:00 -1.3 -4.2 80 1 10   100.53   -5 LegendNANA

Notes on Data Quality.

Legend

  • E = Estimated
  • M = Missing
  • NA = Not Available*
  • [empty] = Indicates an unobserved value
Date modified: